Tracking 18945 objects as of 21-Jan-2018
HD Live streaming from Space Station
objects crossing your sky now

FENGYUN 1C DEB

Track FENGYUN 1C DEB now!
10-day predictions


NORAD ID: 30504
Int'l Code: 1999-025AHS
Perigee: 762.0 km
Apogee: 934.9 km
Inclination: 99.0 °
Period: 101.7 minutes
Semi major axis: 7219 km
RCS: 0.0107 m2 (small)
Launch date: May 10, 1999
Source: People's Republic of China (PRC)
Launch site: Taiyaun Space Center, China (TSC)

Note: This is SATELLITE DEBRIS
aabbcc
Your satellite tracking list
Your tracking list is empty




NASA's NSSDC Master Catalog

Two Line Element Set (TLE):
1 30504U 99025AHS 18019.33196671 +.00000089 +00000-0 +63948-4 0  9993
2 30504 098.9500 336.0752 0119767 119.0479 036.5740 14.15298734565503
Source of the keplerian elements: AFSPC